AKT1738 CYYC-CYNR

Flight info

Callsign AKT1738
Flight time 1h 1m
Altitude 36000
Route AVROM Q933 MAPUX DCT LISVA DCT GONUK/N0441F350 DCT PEPSA DCT SEKIK DCT KEDMO
Aircraft B38M/M-SDE1FGHILORVWXY/HB1

Departure

Time 2026-04-15 14:56
Airport Calgary International Airport (CYYC)

Arrival

Time 2026-04-15 15:57
Airport Fort Mackay / Horizon Airport (CYNR)
Time Latitude Longitude Altitude Speed Heading
2026-04-15 14:39 51.13313 -114.01577 3560 ft 0 kts 130°
2026-04-15 14:43 51.13317 -114.01584 3560 ft 2 kts 130°
2026-04-15 14:43 51.13329 -114.01607 3560 ft 3 kts 131°
2026-04-15 14:43 51.13343 -114.01632 3560 ft 3 kts 133°
2026-04-15 14:44 51.13357 -114.01655 3559 ft 3 kts 139°
2026-04-15 14:44 51.13373 -114.01673 3556 ft 3 kts 158°
2026-04-15 14:44 51.13388 -114.01679 3558 ft 2 kts 211°
2026-04-15 14:44 51.13394 -114.01671 3556 ft 1 kts 224°
2026-04-15 14:45 51.13395 -114.01670 3556 ft 0 kts 224°
2026-04-15 14:46 51.13393 -114.01673 3556 ft 1 kts 224°
2026-04-15 14:47 51.13384 -114.01687 3558 ft 3 kts 223°
2026-04-15 14:47 51.13364 -114.01711 3554 ft 5 kts 210°
2026-04-15 14:47 51.13319 -114.01720 3559 ft 8 kts 181°
2026-04-15 14:47 51.13249 -114.01721 3557 ft 12 kts 181°
2026-04-15 14:48 51.13160 -114.01721 3559 ft 13 kts 172°
2026-04-15 14:48 51.13079 -114.01692 3560 ft 11 kts 169°
2026-04-15 14:48 51.13010 -114.01679 3560 ft 10 kts 181°
2026-04-15 14:48 51.12937 -114.01685 3560 ft 11 kts 184°
2026-04-15 14:49 51.12853 -114.01685 3560 ft 14 kts 178°
2026-04-15 14:49 51.12744 -114.01684 3560 ft 18 kts 180°
2026-04-15 14:49 51.12623 -114.01659 3556 ft 17 kts 146°
2026-04-15 14:49 51.12533 -114.01568 3560 ft 15 kts 174°
2026-04-15 14:50 51.12425 -114.01563 3560 ft 16 kts 180°
2026-04-15 14:50 51.12311 -114.01566 3558 ft 17 kts 180°
2026-04-15 14:50 51.12193 -114.01552 3559 ft 17 kts 156°
2026-04-15 14:50 51.12123 -114.01409 3558 ft 17 kts 121°
2026-04-15 14:51 51.12065 -114.01249 3560 ft 17 kts 120°
2026-04-15 14:51 51.12003 -114.01083 3560 ft 18 kts 122°
2026-04-15 14:51 51.11939 -114.00907 3558 ft 19 kts 120°
2026-04-15 14:51 51.11872 -114.00712 3560 ft 21 kts 118°
2026-04-15 14:52 51.11826 -114.00487 3560 ft 22 kts 90°
2026-04-15 14:52 51.11824 -114.00237 3560 ft 23 kts 89°
2026-04-15 14:52 51.11823 -113.99971 3560 ft 24 kts 89°
2026-04-15 14:52 51.11823 -113.99710 3560 ft 21 kts 89°
2026-04-15 14:53 51.11820 -113.99506 3561 ft 15 kts 103°
2026-04-15 14:53 51.11753 -113.99451 3558 ft 11 kts 178°
2026-04-15 14:53 51.11651 -113.99448 3558 ft 19 kts 180°
2026-04-15 14:53 51.11495 -113.99447 3561 ft 25 kts 180°
2026-04-15 14:54 51.11303 -113.99445 3559 ft 30 kts 180°
2026-04-15 14:54 51.11108 -113.99445 3561 ft 25 kts 178°
2026-04-15 14:54 51.11033 -113.99288 3561 ft 17 kts 89°
2026-04-15 14:54 51.11034 -113.99137 3564 ft 11 kts 89°
2026-04-15 14:55 51.11060 -113.99040 3558 ft 10 kts 16°
2026-04-15 14:55 51.11205 -113.99036 3563 ft 44 kts
2026-04-15 14:55 51.11702 -113.99034 3560 ft 97 kts 360°
2026-04-15 14:55 51.12216 -113.99036 3565 ft 125 kts 360°
2026-04-15 14:56 51.13576 -113.99010 3693 ft 162 kts
2026-04-15 14:56 51.14345 -113.98988 4075 ft 163 kts
2026-04-15 14:56 51.15503 -113.98986 4574 ft 177 kts 359°
2026-04-15 14:56 51.17170 -113.98643 4816 ft 189 kts 18°
2026-04-15 14:57 51.18019 -113.98158 4935 ft 196 kts 20°
2026-04-15 14:57 51.19330 -113.97353 5106 ft 207 kts 20°
2026-04-15 14:57 51.20700 -113.96492 5625 ft 213 kts 20°
2026-04-15 14:57 51.22032 -113.95389 6208 ft 219 kts 31°
2026-04-15 14:58 51.23299 -113.93956 6632 ft 231 kts 35°
2026-04-15 14:58 51.24624 -113.92369 6990 ft 246 kts 31°
2026-04-15 14:58 51.26183 -113.91034 7344 ft 260 kts 18°
2026-04-15 14:58 51.27919 -113.90152 7807 ft 269 kts 12°
2026-04-15 14:59 51.29750 -113.89332 8394 ft 276 kts 14°
2026-04-15 14:59 51.31602 -113.88378 9040 ft 281 kts 15°
2026-04-15 14:59 51.33446 -113.87375 9723 ft 285 kts 15°
2026-04-15 14:59 51.35357 -113.86365 10196 ft 294 kts 15°
2026-04-15 15:00 51.37352 -113.85333 10545 ft 307 kts 15°
2026-04-15 15:00 51.39412 -113.84259 10961 ft 318 kts 15°
2026-04-15 15:00 51.41549 -113.83133 11499 ft 326 kts 15°
2026-04-15 15:00 51.43728 -113.81985 12056 ft 332 kts 15°
2026-04-15 15:01 51.45943 -113.80823 12635 ft 337 kts 15°
2026-04-15 15:01 51.48200 -113.79669 13210 ft 341 kts 12°
2026-04-15 15:01 51.50502 -113.78825 13764 ft 345 kts 11°
2026-04-15 15:01 51.52861 -113.77919 14284 ft 349 kts 11°
2026-04-15 15:02 51.55226 -113.77008 14827 ft 353 kts 10°
2026-04-15 15:02 51.57636 -113.76110 15378 ft 356 kts 10°
2026-04-15 15:02 51.60065 -113.75209 15925 ft 359 kts 10°
2026-04-15 15:02 51.62512 -113.74287 16467 ft 363 kts 10°
2026-04-15 15:03 51.64982 -113.73351 17001 ft 366 kts 10°
2026-04-15 15:03 51.67483 -113.72408 17515 ft 369 kts 10°
2026-04-15 15:03 51.69975 -113.71470 18011 ft 373 kts 10°
2026-04-15 15:03 51.72520 -113.70509 18452 ft 376 kts
2026-04-15 15:04 51.75069 -113.69544 18883 ft 380 kts
2026-04-15 15:04 51.77654 -113.68564 19310 ft 383 kts
2026-04-15 15:04 51.80263 -113.67576 19740 ft 387 kts
2026-04-15 15:04 51.82898 -113.66576 20180 ft 390 kts
2026-04-15 15:05 51.85548 -113.65569 20636 ft 392 kts
2026-04-15 15:05 51.88190 -113.64562 21073 ft 395 kts
2026-04-15 15:05 51.90882 -113.63536 21492 ft 398 kts
2026-04-15 15:05 51.93597 -113.62501 21918 ft 401 kts
2026-04-15 15:06 51.99056 -113.60414 22749 ft 406 kts
2026-04-15 15:06 52.01820 -113.59355 23155 ft 409 kts
2026-04-15 15:06 52.04575 -113.58299 23471 ft 412 kts
2026-04-15 15:07 52.07372 -113.57226 23785 ft 415 kts
2026-04-15 15:07 52.10192 -113.56142 24103 ft 418 kts
2026-04-15 15:07 52.13027 -113.55052 24454 ft 420 kts
2026-04-15 15:07 52.15879 -113.53951 24773 ft 422 kts
2026-04-15 15:08 52.18759 -113.52838 25092 ft 425 kts
2026-04-15 15:08 52.21655 -113.51720 25387 ft 428 kts
2026-04-15 15:08 52.24565 -113.50594 25682 ft 430 kts
2026-04-15 15:08 52.27450 -113.49477 25976 ft 433 kts
2026-04-15 15:09 52.30394 -113.48334 26275 ft 436 kts
2026-04-15 15:09 52.33367 -113.47178 26567 ft 439 kts
2026-04-15 15:09 52.36347 -113.46019 26850 ft 441 kts
2026-04-15 15:09 52.39354 -113.44847 27135 ft 444 kts
2026-04-15 15:10 52.42341 -113.43682 27476 ft 446 kts
2026-04-15 15:10 52.45376 -113.42496 27763 ft 449 kts
2026-04-15 15:10 52.48432 -113.41300 28037 ft 451 kts
2026-04-15 15:10 52.51498 -113.40099 28320 ft 454 kts
2026-04-15 15:11 52.54584 -113.38888 28590 ft 457 kts
2026-04-15 15:11 52.57697 -113.37665 28846 ft 459 kts
2026-04-15 15:11 52.60811 -113.36439 29107 ft 462 kts
2026-04-15 15:11 52.63946 -113.35203 29376 ft 464 kts
2026-04-15 15:12 52.67070 -113.33971 29627 ft 467 kts
2026-04-15 15:12 52.70246 -113.32715 29903 ft 469 kts
2026-04-15 15:12 52.73431 -113.31622 30117 ft 464 kts 358°
2026-04-15 15:12 52.76617 -113.31406 30347 ft 453 kts 347°
2026-04-15 15:13 52.79696 -113.31980 30560 ft 447 kts 342°
2026-04-15 15:13 52.82777 -113.32715 30774 ft 449 kts 342°
2026-04-15 15:13 52.85901 -113.33460 31002 ft 452 kts 343°
2026-04-15 15:13 52.89024 -113.34198 31212 ft 454 kts 343°
2026-04-15 15:14 52.92133 -113.34931 31437 ft 456 kts 343°
2026-04-15 15:14 52.95281 -113.35680 31700 ft 458 kts 344°
2026-04-15 15:14 52.98450 -113.36436 31910 ft 460 kts 344°
2026-04-15 15:14 53.01629 -113.37193 32121 ft 462 kts 345°
2026-04-15 15:15 53.04830 -113.37956 32350 ft 465 kts 345°
2026-04-15 15:15 53.08002 -113.38714 32554 ft 467 kts 345°
2026-04-15 15:15 53.11242 -113.39491 32762 ft 469 kts 345°
2026-04-15 15:15 53.14484 -113.40267 33065 ft 470 kts 345°
2026-04-15 15:16 53.17729 -113.41045 33372 ft 470 kts 345°
2026-04-15 15:16 53.20945 -113.41819 33707 ft 471 kts 346°
2026-04-15 15:16 53.24211 -113.42606 33960 ft 471 kts 346°
2026-04-15 15:16 53.27465 -113.43391 34216 ft 472 kts 346°
2026-04-15 15:17 53.30684 -113.44168 34400 ft 472 kts 346°
2026-04-15 15:17 53.33941 -113.44956 34662 ft 473 kts 346°
2026-04-15 15:17 53.37203 -113.45747 34934 ft 473 kts 346°
2026-04-15 15:17 53.40464 -113.46538 35211 ft 473 kts 346°
2026-04-15 15:18 53.43723 -113.47331 35492 ft 473 kts 346°
2026-04-15 15:18 53.46987 -113.48126 35850 ft 473 kts 347°
2026-04-15 15:18 53.50248 -113.48920 36126 ft 473 kts 347°
2026-04-15 15:18 53.53472 -113.49708 36399 ft 473 kts 347°
2026-04-15 15:19 53.56739 -113.50507 36682 ft 473 kts 347°
2026-04-15 15:19 53.60011 -113.51309 36963 ft 473 kts 347°
2026-04-15 15:19 53.63277 -113.52110 37241 ft 474 kts 347°
2026-04-15 15:19 53.66537 -113.52911 37522 ft 474 kts 347°
2026-04-15 15:20 53.69834 -113.53347 37784 ft 478 kts 357°
2026-04-15 15:20 53.73151 -113.52764 37790 ft 476 kts
2026-04-15 15:20 53.79570 -113.50619 37795 ft 471 kts
2026-04-15 15:21 53.85990 -113.48489 37816 ft 472 kts
2026-04-15 15:21 53.92461 -113.46327 37837 ft 472 kts
2026-04-15 15:22 53.98878 -113.44176 37849 ft 472 kts
2026-04-15 15:22 54.05323 -113.42011 37856 ft 468 kts
2026-04-15 15:23 54.11702 -113.39862 37867 ft 470 kts
2026-04-15 15:23 54.18109 -113.37696 37867 ft 471 kts
2026-04-15 15:24 54.24551 -113.35510 37874 ft 470 kts
2026-04-15 15:24 54.30921 -113.33221 37880 ft 472 kts 15°
2026-04-15 15:25 54.37071 -113.29069 37885 ft 475 kts 19°
2026-04-15 15:25 54.43191 -113.24747 37889 ft 474 kts 19°
2026-04-15 15:26 54.49268 -113.20492 37897 ft 474 kts 19°
2026-04-15 15:26 54.55374 -113.16168 37904 ft 473 kts 19°
2026-04-15 15:27 54.61493 -113.11844 37936 ft 476 kts 19°
2026-04-15 15:27 54.67610 -113.07489 37895 ft 474 kts 19°
2026-04-15 15:28 54.73681 -113.03166 37895 ft 474 kts 19°
2026-04-15 15:28 54.79790 -112.98795 37901 ft 474 kts 19°
2026-04-15 15:29 54.85846 -112.94450 37904 ft 474 kts 19°
2026-04-15 15:29 54.91954 -112.90053 37915 ft 474 kts 19°
2026-04-15 15:30 54.98070 -112.85635 37919 ft 475 kts 20°
2026-04-15 15:30 55.04173 -112.81212 37936 ft 475 kts 20°
2026-04-15 15:31 55.10362 -112.77420 37933 ft 472 kts 11°
2026-04-15 15:31 55.16702 -112.74622 37953 ft 471 kts 11°
2026-04-15 15:32 55.23064 -112.71745 37952 ft 471 kts 12°
2026-04-15 15:32 55.29448 -112.68878 37969 ft 473 kts 12°
2026-04-15 15:33 55.35792 -112.66006 37964 ft 474 kts 12°
2026-04-15 15:33 55.42177 -112.63110 37547 ft 472 kts 12°
2026-04-15 15:34 55.45365 -112.61663 36922 ft 473 kts 11°
2026-04-15 15:34 55.48560 -112.60208 36309 ft 474 kts 12°
2026-04-15 15:34 55.51763 -112.58744 35710 ft 475 kts 11°
2026-04-15 15:34 55.54935 -112.57295 35108 ft 476 kts 11°
2026-04-15 15:35 55.58149 -112.55825 34493 ft 477 kts 12°
2026-04-15 15:35 55.61370 -112.54348 33848 ft 478 kts 12°
2026-04-15 15:35 55.64589 -112.52868 33225 ft 476 kts 12°
2026-04-15 15:35 55.67788 -112.51395 32604 ft 474 kts 12°
2026-04-15 15:36 55.70978 -112.49926 32007 ft 471 kts 12°
2026-04-15 15:36 55.74149 -112.48463 31416 ft 469 kts 12°
2026-04-15 15:36 55.77263 -112.47023 30815 ft 467 kts 12°
2026-04-15 15:36 55.80407 -112.45566 30221 ft 465 kts 12°
2026-04-15 15:37 55.83539 -112.44113 29565 ft 463 kts 12°
2026-04-15 15:37 55.86640 -112.42671 28997 ft 458 kts 12°
2026-04-15 15:37 55.89729 -112.41233 28383 ft 454 kts 12°
2026-04-15 15:37 55.92736 -112.39831 27802 ft 449 kts 12°
2026-04-15 15:38 55.95753 -112.38422 27218 ft 445 kts 12°
2026-04-15 15:38 55.98738 -112.37026 26641 ft 441 kts 12°
2026-04-15 15:38 56.01701 -112.35638 26088 ft 437 kts 12°
2026-04-15 15:38 56.04638 -112.34260 25508 ft 433 kts 12°
2026-04-15 15:39 56.07518 -112.32906 24952 ft 430 kts 12°
2026-04-15 15:39 56.10401 -112.31549 24392 ft 426 kts 12°
2026-04-15 15:39 56.13260 -112.30202 23853 ft 423 kts 12°
2026-04-15 15:39 56.16096 -112.28863 23256 ft 419 kts 12°
2026-04-15 15:40 56.18878 -112.27546 22712 ft 413 kts 12°
2026-04-15 15:40 56.21640 -112.26237 22164 ft 408 kts 12°
2026-04-15 15:40 56.24374 -112.24942 21642 ft 403 kts 11°
2026-04-15 15:40 56.27068 -112.23663 21116 ft 398 kts 11°
2026-04-15 15:41 56.29737 -112.22393 20590 ft 394 kts 12°
2026-04-15 15:41 56.32374 -112.21136 20058 ft 390 kts 12°
2026-04-15 15:41 56.34967 -112.19900 19546 ft 386 kts 12°
2026-04-15 15:41 56.37557 -112.18663 19054 ft 382 kts 12°
2026-04-15 15:42 56.40122 -112.17436 18547 ft 378 kts 12°
2026-04-15 15:42 56.42621 -112.16239 18023 ft 374 kts 12°
2026-04-15 15:42 56.45125 -112.15038 17534 ft 369 kts 12°
2026-04-15 15:42 56.47590 -112.13854 17025 ft 364 kts 12°
2026-04-15 15:43 56.49207 -112.13076 16742 ft 361 kts 12°
2026-04-15 15:43 56.51626 -112.11911 16245 ft 357 kts 12°
2026-04-15 15:43 56.54786 -112.10389 15624 ft 351 kts 12°
2026-04-15 15:43 56.56378 -112.09620 15322 ft 349 kts 12°
2026-04-15 15:44 56.58716 -112.08491 14836 ft 346 kts 12°
2026-04-15 15:44 56.61000 -112.07385 14388 ft 342 kts 12°
2026-04-15 15:44 56.63295 -112.06274 13944 ft 339 kts 13°
2026-04-15 15:44 56.65579 -112.05167 13463 ft 335 kts 13°
2026-04-15 15:45 56.67820 -112.04078 13011 ft 331 kts 12°
2026-04-15 15:45 56.70033 -112.03003 12575 ft 326 kts 11°
2026-04-15 15:45 56.72185 -112.01955 12148 ft 322 kts 12°
2026-04-15 15:45 56.74336 -112.00902 11725 ft 318 kts 13°
2026-04-15 15:46 56.76462 -111.99863 11316 ft 314 kts 13°
2026-04-15 15:46 56.78567 -111.98837 10906 ft 311 kts 13°
2026-04-15 15:46 56.80653 -111.97817 10519 ft 307 kts 14°
2026-04-15 15:46 56.82679 -111.96825 10351 ft 296 kts 13°
2026-04-15 15:47 56.84663 -111.95856 9976 ft 294 kts 14°
2026-04-15 15:47 56.86606 -111.94903 9593 ft 291 kts 15°
2026-04-15 15:47 56.88556 -111.93944 9244 ft 287 kts 15°
2026-04-15 15:47 56.90483 -111.92996 8885 ft 284 kts 16°
2026-04-15 15:48 56.92356 -111.92067 8535 ft 280 kts 17°
2026-04-15 15:48 56.94178 -111.90870 8181 ft 276 kts 21°
2026-04-15 15:48 56.95988 -111.89702 7865 ft 273 kts 21°
2026-04-15 15:48 56.97772 -111.88554 7536 ft 271 kts 21°
2026-04-15 15:49 56.99539 -111.87392 7196 ft 268 kts 22°
2026-04-15 15:49 57.01290 -111.86235 6861 ft 266 kts 22°
2026-04-15 15:49 57.03034 -111.85086 6532 ft 264 kts 22°
2026-04-15 15:49 57.04756 -111.83953 6187 ft 262 kts 22°
2026-04-15 15:50 57.06462 -111.82829 5866 ft 259 kts 23°
2026-04-15 15:50 57.08128 -111.81731 5613 ft 254 kts 23°
2026-04-15 15:50 57.09759 -111.80654 5481 ft 245 kts 23°
2026-04-15 15:50 57.11337 -111.79612 5360 ft 235 kts 24°
2026-04-15 15:51 57.12783 -111.78662 5239 ft 206 kts 24°
2026-04-15 15:51 57.14041 -111.77832 5135 ft 183 kts 25°
2026-04-15 15:51 57.15204 -111.77055 5047 ft 176 kts 25°
2026-04-15 15:51 57.16348 -111.76289 4948 ft 174 kts 25°
2026-04-15 15:52 57.17490 -111.75529 4855 ft 173 kts 25°
2026-04-15 15:52 57.18633 -111.74801 4769 ft 176 kts 19°
2026-04-15 15:52 57.19854 -111.74473 4463 ft 178 kts 12°
2026-04-15 15:52 57.21074 -111.74205 4240 ft 179 kts 13°
2026-04-15 15:53 57.22301 -111.73917 3989 ft 176 kts 13°
2026-04-15 15:53 57.23517 -111.73627 3769 ft 172 kts 13°
2026-04-15 15:53 57.24657 -111.73359 3537 ft 159 kts 13°
2026-04-15 15:53 57.25748 -111.73095 3328 ft 156 kts 13°
2026-04-15 15:54 57.26796 -111.72843 3129 ft 153 kts 14°
2026-04-15 15:54 57.27861 -111.72586 2928 ft 150 kts 13°
2026-04-15 15:54 57.28864 -111.72349 2750 ft 145 kts 13°
2026-04-15 15:54 57.29835 -111.72114 2542 ft 139 kts 13°
2026-04-15 15:55 57.30773 -111.71888 2365 ft 129 kts 12°
2026-04-15 15:55 57.31639 -111.71671 2231 ft 124 kts 12°
2026-04-15 15:55 57.32486 -111.71444 2076 ft 123 kts 11°
2026-04-15 15:55 57.33322 -111.71262 1847 ft 119 kts
2026-04-15 15:56 57.34133 -111.71086 1815 ft 120 kts
2026-04-15 15:56 57.34982 -111.70864 1556 ft 129 kts
2026-04-15 15:56 57.35838 -111.70668 1376 ft 121 kts
2026-04-15 15:56 57.36670 -111.70463 1168 ft 119 kts 10°
2026-04-15 15:57 57.37497 -111.70276 937 ft 116 kts
2026-04-15 15:57 57.38090 -111.70153 926 ft 52 kts 12°
2026-04-15 15:57 57.38299 -111.70064 924 ft 22 kts 12°
2026-04-15 15:57 57.38390 -111.70049 922 ft 6 kts 322°
2026-04-15 15:58 57.38391 -111.70067 922 ft 0 kts 255°
2026-04-15 15:58 57.38374 -111.70059 922 ft 5 kts 150°
2026-04-15 15:58 57.38351 -111.70053 924 ft 5 kts 188°
2026-04-15 15:58 57.38296 -111.70070 922 ft 12 kts 191°
2026-04-15 15:59 57.38196 -111.70101 924 ft 17 kts 187°
2026-04-15 15:59 57.38066 -111.70135 924 ft 19 kts 187°
2026-04-15 15:59 57.37936 -111.70163 920 ft 17 kts 188°
2026-04-15 15:59 57.37857 -111.70115 926 ft 10 kts 120°
2026-04-15 16:00 57.37842 -111.70019 926 ft 6 kts 97°
2026-04-15 16:00 57.37838 -111.69954 922 ft 4 kts 96°
2026-04-15 16:00 57.37835 -111.69914 926 ft 2 kts 102°
2026-04-15 16:00 57.37825 -111.69872 924 ft 5 kts 123°
2026-04-15 16:01 57.37808 -111.69817 922 ft 5 kts 97°
2026-04-15 16:01 57.37807 -111.69781 923 ft 1 kts 96°